Miscellaneous Local Product
Issued by NWS Hastings, NE

Home | Current Version | Previous Version | Text Only | Print | Product List | Glossary Off
Versions: 1 2 3 4 5 6 7 8 9 10 11 12 13 14 15 16 17 18 19 20 21 22 23 24 25 26 27 28 29 30 31 32 33 34 35 36 37 38 39 40 41 42 43 44 45 46 47 48 49 50

000
AXUS43 KGID 241702
MISGRI

GID CWA HOURLY WEATHER ROUNDUP
NATIONAL WEATHER SERVICE HASTINGS NE
1200 PM CDT SAT JUN 24 2017

NOTE: "FAIR" INDICATES FEW OR NO CLOUDS BELOW 12,000 FEET WITH NO
SIGNIFICANT WEATHER AND/OR OBSTRUCTIONS TO VISIBILITY.

...SOUTH CENTRAL NEBRASKA...

CITY           SKY/WX    TMP DP  RH WIND       PRES   REMARKS
GRAND ISLAND   SUNNY     73  39  29 SW13      30.25S
HASTINGS       MOSUNNY   72  35  25 VRB7      30.28R
KEARNEY        SUNNY     73  36  25 W7        30.27S
ORD            MOSUNNY   75  32  20 NW15G25   30.22S
YORK           SUNNY     73  41  31 W8G18     30.24R
AURORA         SUNNY     73  37  27 W7        30.25S
LEXINGTON      CLOUDY    73  38  28 SW5       30.28S
HOLDREGE       CLOUDY    70  36  29 SW9       30.29R
HEBRON         SUNNY     75  35  22 SW5       30.25F

...NEBRASKA PANHANDLE...

CITY           SKY/WX    TMP DP  RH WIND       PRES   REMARKS
CHADRON        PTSUNNY   70  36  28 N8        30.29S
ALLIANCE       SUNNY     70  34  26 NW7       30.30S
SCOTTSBLUFF    CLOUDY    65  38  36 MISG      30.32S
SIDNEY         CLOUDY    68  33  27 VRB3      30.32S

...WESTERN AND NORTH CENTRAL NEBRASKA...

CITY           SKY/WX    TMP DP  RH WIND       PRES   REMARKS
VALENTINE      MOSUNNY   74  27  17 NW22G30   30.23F
AINSWORTH      MOSUNNY   71  34  25 NW22G29   30.24S
ONEILL         MOSUNNY   73  36  25 W17G28    30.21S
BROKEN BOW     SUNNY     74  33  22 W12G25    30.25S
IMPERIAL       CLOUDY    68  40  35 S9        30.30F
NORTH PLATTE   PTSUNNY   73  34  23 VRB3      30.28S
MCCOOK         PTSUNNY   70  43  37 S7        30.29F

...EASTERN NEBRASKA...

CITY           SKY/WX    TMP DP  RH WIND       PRES   REMARKS
NORFOLK        MOSUNNY   75  37  25 W17G25    30.18S
SO SIOUX CITY  PTSUNNY   73  37  27 W20G29    30.13F
TEKAMAH        SUNNY     78  35  21 W21G29    30.15F
COLUMBUS       SUNNY     74  37  26 W17G24    30.20F
ALBION         MOSUNNY   75  33  21 NW15G21   30.21S
OMAHA EPPLEY   MOSUNNY   76  40  27 W12       30.17F
OFFUTT AFB     SUNNY     75  39  27 W16G23    30.18F
MILLARD        SUNNY     76  42  29 W10G21    30.19S
LINCOLN        SUNNY     76  37  24 NW9       30.22S
NEBRASKA CITY  SUNNY     72  47  41 W6        30.23S
BEATRICE       SUNNY     74  43  32 W8        30.24S
FALLS CITY     SUNNY     73  43  33 W8        30.23S

...NORTHERN KANSAS...

CITY           SKY/WX    TMP DP  RH WIND       PRES   REMARKS
GOODLAND       CLOUDY    65  50  58 SE14      30.31R
HILL CITY      PTSUNNY   70  47  43 SE8       30.31R
NORTON         CLOUDY    73  36  25 S9        30.29S
PHILLIPSBURG   CLOUDY    73  37  27 S7        30.29S
SMITH CENTER   SUNNY     72  39  30 S9        30.29R
HAYS           CLOUDY    73  51  46 SE10      30.29S
RUSSELL        MOSUNNY   75  45  34 SE10      30.27F
CONCORDIA      MOSUNNY   74  36  25 VRB3      30.27R
SALINA         SUNNY     79  43  27 VRB3      30.28S
TOPEKA         SUNNY     75  44  33 VRB5      30.25S



USA.gov is the U.S. government's official web portal to all federal, state and local government web resources and services.